Domov               UVHVVR             MKGP            O straneh              
ZDRAVSTVENO VARSTVO RASTLIN
  MREŽA AGROMET. POSTAJ
 ► PROGNOSTIČNA OBVESTILA
AGROMETEOROLOŠKI PODATKI -
ARSO
OBVLADOVANJE TVEGANJ ZARADI
NEUGODNIH VREMENSKIH RAZMER
  ► NARAVNE NESREČE
  ► SUŠA/MOČA
  ► NAMAKANJE
  ► ŽLED (gozdarstvo)
KARTOGRAFSKI PRIKAZI
SPLETNE POVEZAVE
PROJEKTI IN PUBLIKACIJE

AGROMETEOROLOŠKA MREŽA: VREMENSKE POSTAJE IN FENOLOŠKA OPAZOVANJA

Pregled podatkov za lokacijo Bizeljsko, meteorološka postaja 38541

Pregled senzorjev na lokaciji

ID Ime Zadnja
vrednost
Datum
zadnje
spremembe
Tip
senzorja
2027 Temperatura 2 m ( °C) 11,23 °C 17.10.2017 07:30 50YA
2028 Relativna vlaga 2 m (% RH) 90,77 % RH 17.10.2017 07:30 50YA
2029 Omočenost lista (U) 10 U 17.10.2017 07:30 A730WET
2030 Padavine 0.2 mm (mm) 0 mm 17.10.2017 07:29 Rain-O-Matic

Pregled podatkov zadnjih 24 ur

Zap.
št.
Datum in čas Bizeljsko
Omočenost
lista
Padavine
0.2
mm
Relativna
vlaga
2
m
Temperatura
2
m
0 17.10.2017 06:30 10 0 90,77 11,23
1 17.10.2017 06:00 10 0 89,28 11,58
2 17.10.2017 05:30 5 0 89,4 11,67
3 17.10.2017 05:00 3 0 88,01 11,97
4 17.10.2017 04:30 1 0 87,84 12,06
5 17.10.2017 04:00 1 0 87,13 12,01
6 17.10.2017 03:30 1 0 85,67 12,11
7 17.10.2017 03:00 1 0 82,49 12,67
8 17.10.2017 02:30 1 0 81,29 12,82
9 17.10.2017 02:00 1 0 82,66 12,48
10 17.10.2017 01:30 0 0 82,15 12,72
11 17.10.2017 01:00 0 0 80,83 12,97
12 17.10.2017 00:30 0 0 83,1 12,97
13 17.10.2017 00:00 0 0 82 13,28
14 16.10.2017 23:30 0 0 80,22 13,82
15 16.10.2017 23:00 0 0 76,92 14,53
16 16.10.2017 22:30 0 0 75,56 14,85
17 16.10.2017 22:00 0 0 75,46 14,41
18 16.10.2017 21:30 0 0 68,38 15,21
19 16.10.2017 21:00 0 0 61,88 15,87
20 16.10.2017 20:30 0 0 64,1 15,24
21 16.10.2017 20:00 0 0 65,86 15,24
22 16.10.2017 19:30 0 0 63,32 15,58
23 16.10.2017 19:00 0 0 59,85 16,07
24 16.10.2017 18:30 0 0 56,75 16,43
25 16.10.2017 18:00 0 0 56,53 16,75
26 16.10.2017 17:30 0 0 63,54 16,65
27 16.10.2017 17:00 0 0 64,08 17,09
28 16.10.2017 16:30 0 0 52,82 20,2
29 16.10.2017 16:00 0 0 47,74 22,08
30 16.10.2017 15:30 0 0 47,37 22,52
31 16.10.2017 15:00 0 0 49,23 22,27
32 16.10.2017 14:30 0 0 50,4 22,2
33 16.10.2017 14:00 0 0 54,82 21,76
34 16.10.2017 13:30 0 0 60,02 21,2
35 16.10.2017 13:00 0 0 63,42 20,37
36 16.10.2017 12:30 0 0 68,13 19,61
37 16.10.2017 12:00 0 0 69,79 18,83
38 16.10.2017 11:30 0 0 70,33 18,49
39 16.10.2017 11:00 0 0 73,6 17,41
40 16.10.2017 10:30 0 0 73,06 17,26
41 16.10.2017 10:00 0 0 73,28 16,75
42 16.10.2017 09:30 0 0 74,65 15,97
43 16.10.2017 09:00 0 0 75,75 15,53
44 16.10.2017 08:30 1 0 74,09 15,48
45 16.10.2017 08:00 10 0 74,63 15,46
© 2011 Ministrstvo za kmetijstvo, gozdarstvo in prehrano. Vse pravice pridržane.